Weather History for Salem, OR

Change the Weather History Date:

Saturday, January 19, 2013

  Actual Average Record
Temperature  
Mean Temperature 29 °F 42 °F  
Max Temperature 31 °F 48 °F 63 °F (2005)
Min Temperature 27 °F 35 °F 15 °F (1922)
Degree Days  
Heating Degree Days 36 23  
Month to date heating degree days 552 462  
Since 1 July heating degree days 2164 2351  
Cooling Degree Days 0 0  
Month to date cooling degree days 0 0  
Year to date cooling degree days 0 0  
Moisture  
Dew Point 29 °F    
Average Humidity 96    
Maximum Humidity 100    
Minimum Humidity 92    
Precipitation  
Precipitation T in 0.19 in 2.20 in (1919)
Month to date precipitation 0.53 3.83  
Year to date precipitation 0.53 3.83  
Snow  
Snow 0.00 in - - ()
Month to date snowfall 0.0  
Snow Depth 0.00 in    
Sea Level Pressure  
Sea Level Pressure 30.33 in    
Wind  
Wind Speed 0 mph (East)    
Max Wind Speed 5 mph    
Max Gust Speed 6 mph    
T = Trace of Precipitation, MM = Missing Value Source: NWS Daily Summary

Daily Weather History Graph

Daily Weather History Graph

Search for Another Location

Airport:

Trip Planner

Search our weather history database for the weather conditions in past years. The results will help you decide how hot, cold, wet, or windy it might be!

Date:

Astronomy

Jan. 19, 2013 Rise Set
Actual Time 7:43 AM PST 5:02 PM PST
Civil Twilight 7:11 AM PST 5:34 PM PST
Nautical Twilight 6:35 AM PST 6:10 PM PST
Astronomical Twilight 6:00 AM PST 6:45 PM PST
Moon 11:34 AM PST 1:19 AM PST
Length of Visible Light 10h 23m
Length of Day
9h 19m
First Quarter, 58% of the Moon is Illuminated
Jan 19
First Quarter
Jan 26
Full
Feb 3
Last Quarter
Feb 9
New
Feb 17
First Quarter

Hourly Weather History & Observations

Time (PST) Temp. Windchill Dew Point Humidity Pressure Visibility Wind Dir Wind Speed Gust Speed Precip Events Conditions
12:56 AM 28.9 °F - 28.9 °F 100% 30.30 in 0.2 mi Calm Calm - N/A Fog Light Freezing Fog
1:56 AM 28.9 °F - 28.9 °F 100% 30.31 in 0.2 mi Calm Calm - N/A Fog Light Freezing Fog
2:56 AM 28.9 °F - 28.9 °F 100% 30.32 in 0.2 mi Calm Calm - N/A Fog Light Freezing Fog
3:56 AM 28.0 °F - 28.0 °F 100% 30.32 in 0.5 mi Calm Calm - N/A Fog Light Freezing Fog
4:56 AM 28.0 °F - 27.0 °F 96% 30.31 in 0.5 mi Calm Calm - N/A Fog Light Freezing Fog
5:56 AM 28.0 °F 22.8 °F 28.0 °F 100% 30.32 in 0.5 mi NNE 4.6 mph - 0.00 in Fog , Snow Light Snow
6:56 AM 28.0 °F - 27.0 °F 96% 30.33 in 0.5 mi Calm Calm - 0.00 in Fog Light Freezing Fog
7:56 AM 27.0 °F - 27.0 °F 100% 30.33 in 0.2 mi Calm Calm - N/A Fog Light Freezing Fog
8:56 AM 28.0 °F - 28.0 °F 100% 30.35 in 0.2 mi Calm Calm - N/A Fog Light Freezing Fog
9:56 AM 28.0 °F - 27.0 °F 96% 30.36 in 0.2 mi Calm Calm - N/A Fog Light Freezing Fog
10:56 AM 28.9 °F - 28.0 °F 96% 30.36 in 0.5 mi Calm Calm - N/A Fog Light Freezing Fog
11:56 AM 28.9 °F - 28.9 °F 100% 30.34 in 1.0 mi Calm Calm - N/A   Overcast
12:56 PM 30.0 °F - 30.0 °F 100% 30.32 in 1.0 mi Calm Calm - N/A   Overcast
1:56 PM 30.0 °F - 30.0 °F 100% 30.31 in 1.0 mi Calm Calm - N/A   Overcast
2:56 PM 30.9 °F - 30.0 °F 96% 30.30 in 1.5 mi Calm Calm - N/A   Overcast
3:56 PM 30.9 °F - 30.9 °F 100% 30.30 in 1.5 mi Calm Calm - N/A   Overcast
4:56 PM 30.9 °F - 30.9 °F 100% 30.30 in 0.8 mi Calm Calm - N/A   Overcast
5:56 PM 30.0 °F - 30.0 °F 100% 30.31 in 0.8 mi Calm Calm - N/A   Mist
6:56 PM 30.0 °F - 30.0 °F 100% 30.32 in 0.5 mi Calm Calm - N/A Fog Light Freezing Fog
7:56 PM 30.0 °F - 30.0 °F 100% 30.33 in 0.5 mi Calm Calm - N/A Fog Light Freezing Fog
8:56 PM 30.0 °F - 30.0 °F 100% 30.34 in 0.2 mi Calm Calm - N/A Fog Light Freezing Fog
9:56 PM 30.0 °F 26.5 °F 30.0 °F 100% 30.35 in 0.5 mi SE 3.5 mph - N/A Fog Light Freezing Fog
10:56 PM 30.0 °F - 30.0 °F 100% 30.35 in 0.2 mi Calm Calm - N/A Fog Light Freezing Fog
11:36 PM 30.2 °F - 30.2 °F 100% 30.34 in 0.5 mi Calm Calm - N/A Fog Light Freezing Fog
11:56 PM 30.0 °F - 28.9 °F 96% 30.35 in 0.5 mi Calm Calm - N/A Fog Light Freezing Fog